| time (UTC) | temp F | wind direction | speed MPH | gust MPH | rain 1hr in | rain 24hr in | rain mn in | humidity % | barometer mb |
| 20260502164215 | 78 | 220 | 4.0 | 8.0 | 0.00 | 0.00 | 0.00 | 25 | 1016.7 |
| 20260502163915 | 78 | 167 | 7.0 | 13.0 | 0.00 | 0.00 | 0.00 | 24 | 1016.7 |
| 20260502163615 | 78 | 159 | 3.0 | 7.0 | 0.00 | 0.00 | 0.00 | 24 | 1016.7 |
| 20260502163315 | 78 | 187 | 3.0 | 7.0 | 0.00 | 0.00 | 0.00 | 24 | 1016.8 |
| 20260502163138 | 78 | 193 | 3.0 | 7.0 | 0.00 | 0.00 | 0.00 | 24 | 1016.8 |
| 20260502162715 | 78 | 202 | 3.0 | 6.0 | 0.00 | 0.00 | 0.00 | 24 | 1016.8 |
| 20260502162416 | 78 | 175 | 5.0 | 9.0 | 0.00 | 0.00 | 0.00 | 23 | 1016.9 |
| 20260502162119 | 78 | 175 | 7.0 | 11.0 | 0.00 | 0.00 | 0.00 | 24 | 1016.9 |
| 20260502161816 | 78 | 181 | 6.0 | 9.0 | 0.00 | 0.00 | 0.00 | 24 | 1017.0 |
| 20260502161516 | 78 | 178 | 4.0 | 7.0 | 0.00 | 0.00 | 0.00 | 25 | 1017.0 |
| 20260502161216 | 78 | 206 | 4.0 | 7.0 | 0.00 | 0.00 | 0.00 | 25 | 1017.0 |
| 20260502160916 | 78 | 195 | 4.0 | 7.0 | 0.00 | 0.00 | 0.00 | 25 | 1017.0 |
| 20260502160616 | 78 | 205 | 3.0 | 5.0 | 0.00 | 0.00 | 0.00 | 26 | 1017.1 |
| 20260502160317 | 78 | 183 | 4.0 | 8.0 | 0.00 | 0.00 | 0.00 | 25 | 1017.1 |
| 20260502152116 | 79 | 152 | 6.0 | 11.0 | 0.00 | 0.00 | 0.00 | 26 | 1017.6 |
| 20260502151815 | 79 | 164 | 4.0 | 7.0 | 0.00 | 0.00 | 0.00 | 26 | 1017.6 |
| 20260502151516 | 79 | 169 | 7.0 | 11.0 | 0.00 | 0.00 | 0.00 | 26 | 1017.7 |
| 20260502151216 | 79 | 170 | 4.0 | 10.0 | 0.00 | 0.00 | 0.00 | 26 | 1017.7 |
| 20260502150956 | 79 | 156 | 3.0 | 8.0 | 0.00 | 0.00 | 0.00 | 27 | 1017.8 |
| 20260502150616 | 79 | 223 | 3.0 | 5.0 | 0.00 | 0.00 | 0.00 | 26 | 1017.7 |
| 20260502150316 | 79 | 165 | 4.0 | 7.0 | 0.00 | 0.00 | 0.00 | 26 | 1017.8 |
| 20260502130616 | 80 | 210 | 5.0 | 12.0 | 0.00 | 0.00 | 0.00 | 27 | 1019.5 |
| 20260502130316 | 79 | 184 | 6.0 | 12.0 | 0.00 | 0.00 | 0.00 | 28 | 1019.5 |
| 20260502123616 | 79 | 221 | 5.0 | 12.0 | 0.00 | 0.00 | 0.00 | 28 | 1019.9 |
| 20260502123316 | 79 | 208 | 5.0 | 13.0 | 0.00 | 0.00 | 0.00 | 27 | 1020.0 |
| 20260502123135 | 79 | 203 | 6.0 | 10.0 | 0.00 | 0.00 | 0.00 | 28 | 1020.1 |
| 20260502122716 | 79 | 190 | 3.0 | 10.0 | 0.00 | 0.00 | 0.00 | 29 | 1020.0 |
| 20260502122415 | 79 | 150 | 5.0 | 9.0 | 0.00 | 0.00 | 0.00 | 29 | 1020.1 |
| 20260502122117 | 78 | 188 | 5.0 | 12.0 | 0.00 | 0.00 | 0.00 | 29 | 1020.1 |
| 20260502121816 | 79 | 183 | 4.0 | 9.0 | 0.00 | 0.00 | 0.00 | 29 | 1020.2 |
| 20260502121516 | 79 | 190 | 7.0 | 11.0 | 0.00 | 0.00 | 0.00 | 29 | 1020.2 |
| 20260502121215 | 79 | 205 | 6.0 | 14.0 | 0.00 | 0.00 | 0.00 | 29 | 1020.2 |
| 20260502120915 | 79 | 203 | 5.0 | 13.0 | 0.00 | 0.00 | 0.00 | 30 | 1020.3 |
| 20260502120659 | 78 | 237 | 3.0 | 6.0 | 0.00 | 0.00 | 0.00 | 31 | 1020.2 |
| 20260502120316 | 78 | 240 | 4.0 | 11.0 | 0.00 | 0.00 | 0.00 | 30 | 1020.3 |
| 20260502115716 | 79 | 235 | 5.0 | 10.0 | 0.00 | 0.00 | 0.00 | 30 | 1020.5 |
| 20260502115416 | 79 | 202 | 4.0 | 8.0 | 0.00 | 0.00 | 0.00 | 31 | 1020.6 |
| 20260502115116 | 79 | 193 | 6.0 | 11.0 | 0.00 | 0.00 | 0.00 | 31 | 1020.7 |
| 20260502114815 | 78 | 160 | 6.0 | 9.0 | 0.00 | 0.00 | 0.00 | 30 | 1020.6 |
| 20260502114516 | 78 | 226 | 4.0 | 8.0 | 0.00 | 0.00 | 0.00 | 30 | 1020.7 |
| 20260502114256 | 78 | 208 | 4.0 | 11.0 | 0.00 | 0.00 | 0.00 | 32 | 1020.7 |
| 20260502113957 | 78 | 218 | 6.0 | 12.0 | 0.00 | 0.00 | 0.00 | 29 | 1020.7 |
| 20260502113616 | 78 | 185 | 6.0 | 11.0 | 0.00 | 0.00 | 0.00 | 31 | 1020.8 |
| 20260502113317 | 78 | 150 | 5.0 | 10.0 | 0.00 | 0.00 | 0.00 | 30 | 1020.8 |
| 20260502113016 | 78 | 204 | 2.0 | 6.0 | 0.00 | 0.00 | 0.00 | 30 | 1020.8 |
| 20260502112715 | 78 | 198 | 4.0 | 7.0 | 0.00 | 0.00 | 0.00 | 31 | 1020.9 |
| 20260502112459 | 77 | 227 | 5.0 | 8.0 | 0.00 | 0.00 | 0.00 | 30 | 1021.0 |
| 20260502112116 | 77 | 148 | 8.0 | 13.0 | 0.00 | 0.00 | 0.00 | 30 | 1020.9 |
| 20260502111817 | 77 | 165 | 6.0 | 11.0 | 0.00 | 0.00 | 0.00 | 31 | 1021.0 |
| 20260502111516 | 77 | 169 | 6.0 | 10.0 | 0.00 | 0.00 | 0.00 | 31 | 1021.0 |
| 20260502111216 | 77 | 227 | 4.0 | 8.0 | 0.00 | 0.00 | 0.00 | 32 | 1021.1 |
| 20260502110956 | 77 | 227 | 5.0 | 9.0 | 0.00 | 0.00 | 0.00 | 31 | 1021.1 |
| 20260502110615 | 77 | 172 | 5.0 | 10.0 | 0.00 | 0.00 | 0.00 | 31 | 1021.1 |
| 20260502110356 | 76 | 158 | 4.0 | 8.0 | 0.00 | 0.00 | 0.00 | 31 | 1021.2 |
| 20260502110136 | 77 | 154 | 8.0 | 11.0 | 0.00 | 0.00 | 0.00 | 31 | 1021.2 |
| 20260502105756 | 77 | 168 | 5.0 | 9.0 | 0.00 | 0.00 | 0.00 | 31 | 1021.3 |
| 20260502105416 | 77 | 161 | 9.0 | 13.0 | 0.00 | 0.00 | 0.00 | 30 | 1021.3 |
| 20260502105116 | 77 | 203 | 6.0 | 11.0 | 0.00 | 0.00 | 0.00 | 33 | 1021.3 |
| 20260502104817 | 76 | 186 | 5.0 | 9.0 | 0.00 | 0.00 | 0.00 | 34 | 1021.3 |
| 20260502104516 | 76 | 169 | 3.0 | 8.0 | 0.00 | 0.00 | 0.00 | 33 | 1021.4 |
| 20260502104216 | 76 | 209 | 6.0 | 12.0 | 0.00 | 0.00 | 0.00 | 33 | 1021.4 |
| 20260502103916 | 76 | 146 | 5.0 | 9.0 | 0.00 | 0.00 | 0.00 | 33 | 1021.4 |
| 20260502103617 | 76 | 158 | 3.0 | 5.0 | 0.00 | 0.00 | 0.00 | 32 | 1021.5 |
| 20260502103316 | 76 | 195 | 4.0 | 10.0 | 0.00 | 0.00 | 0.00 | 33 | 1021.6 |
| 20260502103016 | 76 | 169 | 6.0 | 11.0 | 0.00 | 0.00 | 0.00 | 34 | 1021.6 |
| 20260502102715 | 76 | 164 | 5.0 | 8.0 | 0.00 | 0.00 | 0.00 | 34 | 1021.6 |
| 20260502102416 | 76 | 199 | 3.0 | 5.0 | 0.00 | 0.00 | 0.00 | 33 | 1021.7 |
| 20260502102116 | 76 | 237 | 5.0 | 10.0 | 0.00 | 0.00 | 0.00 | 33 | 1021.7 |
| 20260502101817 | 76 | 196 | 7.0 | 11.0 | 0.00 | 0.00 | 0.00 | 33 | 1021.8 |
| 20260502101515 | 76 | 179 | 4.0 | 8.0 | 0.00 | 0.00 | 0.00 | 33 | 1021.8 |
| 20260502101217 | 76 | 172 | 5.0 | 9.0 | 0.00 | 0.00 | 0.00 | 33 | 1021.8 |
| 20260502100916 | 76 | 193 | 4.0 | 9.0 | 0.00 | 0.00 | 0.00 | 35 | 1021.9 |
| 20260502100657 | 75 | 195 | 3.0 | 5.0 | 0.00 | 0.00 | 0.00 | 35 | 1021.9 |
| 20260502100436 | 75 | 251 | 5.0 | 9.0 | 0.00 | 0.00 | 0.00 | 35 | 1021.9 |
| 20260502091217 | 75 | 222 | 8.0 | 12.0 | 0.00 | 0.00 | 0.00 | 35 | 1022.5 |
| 20260502090916 | 74 | 190 | 5.0 | 11.0 | 0.00 | 0.00 | 0.00 | 36 | 1022.4 |
| 20260502090616 | 74 | 225 | 5.0 | 9.0 | 0.00 | 0.00 | 0.00 | 36 | 1022.5 |
| 20260502090316 | 74 | 217 | 6.0 | 14.0 | 0.00 | 0.00 | 0.00 | 38 | 1022.5 |
| 20260502071516 | 64 | 159 | 4.0 | 7.0 | 0.00 | 0.00 | 0.00 | 56 | 1023.1 |
| 20260502071336 | 64 | 160 | 4.0 | 7.0 | 0.00 | 0.00 | 0.00 | 56 | 1023.2 |
| 20260502070957 | 64 | 189 | 3.0 | 5.0 | 0.00 | 0.00 | 0.00 | 56 | 1023.2 |
| 20260502070657 | 64 | 205 | 4.0 | 7.0 | 0.00 | 0.00 | 0.00 | 57 | 1023.2 |
| 20260502070357 | 63 | 196 | 2.0 | 4.0 | 0.00 | 0.00 | 0.00 | 59 | 1023.3 |
| 20260502070016 | 63 | 196 | 2.0 | 4.0 | 0.00 | 0.00 | 0.00 | 59 | 1023.3 |
| 20260502065716 | 63 | 213 | 3.0 | 5.0 | 0.00 | 0.00 | 0.00 | 60 | 1023.3 |
| 20260502065459 | 62 | 171 | 2.0 | 4.0 | 0.00 | 0.00 | 0.00 | 60 | 1023.3 |
| 20260502065132 | 62 | 168 | 2.0 | 3.0 | 0.00 | 0.00 | 0.00 | 62 | 1023.3 |
| 20260502064817 | 62 | 156 | 1.0 | 3.0 | 0.00 | 0.00 | 0.00 | 61 | 1023.3 |
| 20260502064516 | 61 | 152 | 2.0 | 4.0 | 0.00 | 0.00 | 0.00 | 62 | 1023.3 |
| 20260502064217 | 61 | 149 | 1.0 | 3.0 | 0.00 | 0.00 | 0.00 | 63 | 1023.3 |
| 20260502063917 | 61 | 142 | 2.0 | 4.0 | 0.00 | 0.00 | 0.00 | 64 | 1023.4 |
| 20260502063619 | 60 | 168 | 2.0 | 4.0 | 0.00 | 0.00 | 0.00 | 64 | 1023.4 |
| 20260502063316 | 60 | 168 | 2.0 | 4.0 | 0.00 | 0.00 | 0.00 | 64 | 1023.4 |
| 20260502063016 | 60 | 149 | 3.0 | 4.0 | 0.00 | 0.00 | 0.00 | 65 | 1023.4 |
| 20260502062716 | 59 | 154 | 2.0 | 4.0 | 0.00 | 0.00 | 0.00 | 66 | 1023.4 |
| 20260502062416 | 59 | 129 | 2.0 | 3.0 | 0.00 | 0.00 | 0.00 | 68 | 1023.4 |
| 20260502062116 | 58 | 116 | 1.0 | 3.0 | 0.00 | 0.00 | 0.00 | 69 | 1023.4 |
| 20260502061820 | 58 | 116 | 1.0 | 3.0 | 0.00 | 0.00 | 0.00 | 70 | 1023.4 |
| 20260502061515 | 57 | 116 | 1.0 | 2.0 | 0.00 | 0.00 | 0.00 | 71 | 1023.5 |
| 20260502061217 | 57 | 116 | 1.0 | 2.0 | 0.00 | 0.00 | 0.00 | 72 | 1023.5 |
| 20260502060916 | 56 | 116 | 2.0 | 3.0 | 0.00 | 0.00 | 0.00 | 72 | 1023.5 |
| 20260502060617 | 56 | 116 | 1.0 | 3.0 | 0.00 | 0.00 | 0.00 | 73 | 1023.5 |
| 20260502060356 | 56 | 116 | 1.0 | 3.0 | 0.00 | 0.00 | 0.00 | 73 | 1023.5 |
| 20260502060057 | 55 | 116 | 2.0 | 3.0 | 0.00 | 0.00 | 0.00 | 73 | 1023.5 |
| 20260502055716 | 55 | 112 | 2.0 | 3.0 | 0.00 | 0.00 | 0.00 | 74 | 1023.5 |
| 20260502055416 | 54 | 90 | 2.0 | 4.0 | 0.00 | 0.00 | 0.00 | 75 | 1023.4 |
| 20260502055157 | 54 | 33 | 2.0 | 2.0 | 0.00 | 0.00 | 0.00 | 76 | 1023.5 |
| 20260502054856 | 53 | 33 | 2.0 | 3.0 | 0.00 | 0.00 | 0.00 | 76 | 1023.5 |
| 20260502054515 | 53 | 33 | 2.0 | 4.0 | 0.00 | 0.00 | 0.00 | 76 | 1023.4 |
| 20260502054216 | 53 | 33 | 2.0 | 3.0 | 0.00 | 0.00 | 0.00 | 77 | 1023.5 |
| 20260502053920 | 53 | 33 | 1.0 | 2.0 | 0.00 | 0.00 | 0.00 | 76 | 1023.4 |
| 20260502053617 | 53 | 33 | 1.0 | 2.0 | 0.00 | 0.00 | 0.00 | 77 | 1023.5 |
| 20260502053315 | 52 | 33 | 2.0 | 3.0 | 0.00 | 0.00 | 0.00 | 77 | 1023.5 |
| 20260502053057 | 52 | 33 | 2.0 | 3.0 | 0.00 | 0.00 | 0.00 | 78 | 1023.5 |
| 20260502052717 | 52 | 32 | 2.0 | 2.0 | 0.00 | 0.00 | 0.00 | 79 | 1023.5 |
| 20260502052417 | 51 | 14 | 1.0 | 2.0 | 0.00 | 0.00 | 0.00 | 79 | 1023.5 |
| 20260502052116 | 51 | 14 | 1.0 | 2.0 | 0.00 | 0.00 | 0.00 | 80 | 1023.5 |
| 20260502051817 | 50 | 0.0 | 0.0 | 0.00 | 0.00 | 0.00 | 80 | 1023.5 | |
| 20260502051517 | 50 | 0.0 | 0.0 | 0.00 | 0.00 | 0.00 | 81 | 1023.5 | |
| 20260502051256 | 49 | 14 | 0.0 | 1.0 | 0.00 | 0.00 | 0.00 | 82 | 1023.4 |
| 20260502050917 | 49 | 14 | 0.0 | 1.0 | 0.00 | 0.00 | 0.00 | 82 | 1023.4 |
| 20260502050736 | 48 | 14 | 0.0 | 1.0 | 0.00 | 0.00 | 0.00 | 82 | 1023.5 |
| 20260502050317 | 48 | 0.0 | 0.0 | 0.00 | 0.00 | 0.00 | 83 | 1023.4 | |
| 20260502050016 | 47 | 0.0 | 0.0 | 0.00 | 0.00 | 0.00 | 84 | 1023.4 | |
| 20260502045837 | 47 | 14 | 0.0 | 1.0 | 0.00 | 0.00 | 0.00 | 84 | 1023.5 |
| 20260502045417 | 46 | 6 | 1.0 | 2.0 | 0.00 | 0.00 | 0.00 | 84 | 1023.5 |
| 20260502045200 | 46 | 5 | 1.0 | 2.0 | 0.00 | 0.00 | 0.00 | 84 | 1023.5 |
| 20260502044817 | 46 | 5 | 1.0 | 1.0 | 0.00 | 0.00 | 0.00 | 84 | 1023.5 |
| 20260502044516 | 45 | 0.0 | 0.0 | 0.00 | 0.00 | 0.00 | 84 | 1023.5 | |
| 20260502044217 | 45 | 0.0 | 0.0 | 0.00 | 0.00 | 0.00 | 85 | 1023.5 | |
| 20260502043959 | 45 | 0.0 | 0.0 | 0.00 | 0.00 | 0.00 | 85 | 1023.5 | |
| 20260502043616 | 44 | 0.0 | 0.0 | 0.00 | 0.00 | 0.00 | 85 | 1023.5 | |
| 20260502043317 | 44 | 0.0 | 0.0 | 0.00 | 0.00 | 0.00 | 85 | 1023.5 | |
| 20260502043015 | 43 | 0.0 | 0.0 | 0.00 | 0.00 | 0.00 | 85 | 1023.5 | |
| 20260502042720 | 43 | 0.0 | 0.0 | 0.00 | 0.00 | 0.00 | 86 | 1023.4 | |
| 20260502042416 | 43 | 5 | 0.0 | 1.0 | 0.00 | 0.00 | 0.00 | 86 | 1023.4 |
| 20260502042117 | 43 | 0.0 | 0.0 | 0.00 | 0.00 | 0.00 | 86 | 1023.4 | |
| 20260502041816 | 43 | 0.0 | 0.0 | 0.00 | 0.00 | 0.00 | 86 | 1023.4 | |
| 20260502041517 | 42 | 0.0 | 0.0 | 0.00 | 0.00 | 0.00 | 86 | 1023.4 | |
| 20260502041216 | 42 | 0.0 | 0.0 | 0.00 | 0.00 | 0.00 | 86 | 1023.4 | |
| 20260502040915 | 42 | 5 | 0.0 | 1.0 | 0.00 | 0.00 | 0.00 | 86 | 1023.5 |
| 20260502040737 | 42 | 0.0 | 0.0 | 0.00 | 0.00 | 0.00 | 85 | 1023.5 | |
| 20260502040356 | 42 | 0.0 | 0.0 | 0.00 | 0.00 | 0.00 | 85 | 1023.5 | |
| 20260502040016 | 42 | 0.0 | 0.0 | 0.00 | 0.00 | 0.00 | 85 | 1023.5 | |
| 20260502035756 | 42 | 0.0 | 0.0 | 0.00 | 0.00 | 0.00 | 85 | 1023.5 | |
| 20260502035500 | 42 | 0.0 | 0.0 | 0.00 | 0.00 | 0.00 | 85 | 1023.5 | |
| 20260502035117 | 42 | 0.0 | 0.0 | 0.00 | 0.00 | 0.00 | 85 | 1023.5 | |
| 20260502034935 | 42 | 0.0 | 0.0 | 0.00 | 0.00 | 0.00 | 85 | 1023.5 | |
| 20260502034600 | 42 | 0.0 | 0.0 | 0.00 | 0.00 | 0.00 | 85 | 1023.5 | |
| 20260502034216 | 42 | 0.0 | 0.0 | 0.00 | 0.00 | 0.00 | 85 | 1023.5 | |
| 20260502033917 | 42 | 0.0 | 0.0 | 0.00 | 0.00 | 0.00 | 85 | 1023.5 | |
| 20260502033615 | 42 | 0.0 | 0.0 | 0.00 | 0.00 | 0.00 | 85 | 1023.6 | |
| 20260502033316 | 42 | 0.0 | 0.0 | 0.00 | 0.00 | 0.00 | 85 | 1023.6 | |
| 20260502033017 | 42 | 0.0 | 0.0 | 0.00 | 0.00 | 0.00 | 85 | 1023.6 | |
| 20260502032715 | 42 | 0.0 | 0.0 | 0.00 | 0.00 | 0.00 | 85 | 1023.6 | |
| 20260502032415 | 42 | 0.0 | 0.0 | 0.00 | 0.00 | 0.00 | 85 | 1023.6 | |
| 20260502032116 | 43 | 0.0 | 0.0 | 0.00 | 0.00 | 0.00 | 85 | 1023.5 | |
| 20260502031817 | 43 | 0.0 | 0.0 | 0.00 | 0.00 | 0.00 | 85 | 1023.6 | |
| 20260502031516 | 43 | 0.0 | 0.0 | 0.00 | 0.00 | 0.00 | 84 | 1023.5 | |
| 20260502031216 | 43 | 0.0 | 0.0 | 0.00 | 0.00 | 0.00 | 84 | 1023.6 | |
| 20260502030920 | 43 | 0.0 | 0.0 | 0.00 | 0.00 | 0.00 | 84 | 1023.6 | |
| 20260502030616 | 43 | 0.0 | 0.0 | 0.00 | 0.00 | 0.00 | 84 | 1023.6 | |
| 20260502030357 | 43 | 0.0 | 0.0 | 0.00 | 0.00 | 0.00 | 84 | 1023.6 | |
| 20260502030019 | 43 | 0.0 | 0.0 | 0.00 | 0.00 | 0.00 | 84 | 1023.6 | |
| 20260502025717 | 43 | 0.0 | 0.0 | 0.00 | 0.00 | 0.00 | 84 | 1023.6 | |
| 20260502025456 | 43 | 0.0 | 0.0 | 0.00 | 0.00 | 0.00 | 84 | 1023.6 | |
| 20260502025116 | 43 | 0.0 | 0.0 | 0.00 | 0.00 | 0.00 | 84 | 1023.6 | |
| 20260502024820 | 43 | 0.0 | 0.0 | 0.00 | 0.00 | 0.00 | 84 | 1023.6 | |
| 20260502024515 | 43 | 0.0 | 0.0 | 0.00 | 0.00 | 0.00 | 84 | 1023.7 | |
| 20260502024217 | 43 | 0.0 | 0.0 | 0.00 | 0.00 | 0.00 | 84 | 1023.7 | |
| 20260502023916 | 43 | 0.0 | 0.0 | 0.00 | 0.00 | 0.00 | 84 | 1023.7 | |
| 20260502023657 | 43 | 0.0 | 0.0 | 0.00 | 0.00 | 0.00 | 83 | 1023.7 | |
| 20260502023316 | 44 | 0.0 | 0.0 | 0.00 | 0.00 | 0.00 | 83 | 1023.7 | |
| 20260502023017 | 44 | 0.0 | 0.0 | 0.00 | 0.00 | 0.00 | 83 | 1023.7 | |
| 20260502022716 | 44 | 0.0 | 0.0 | 0.00 | 0.00 | 0.00 | 83 | 1023.8 | |
| 20260502022457 | 44 | 0.0 | 0.0 | 0.00 | 0.00 | 0.00 | 83 | 1023.8 | |
| 20260502022116 | 44 | 0.0 | 0.0 | 0.00 | 0.00 | 0.00 | 83 | 1023.7 | |
| 20260502021817 | 44 | 0.0 | 0.0 | 0.00 | 0.00 | 0.00 | 83 | 1023.8 | |
| 20260502021516 | 44 | 0.0 | 0.0 | 0.00 | 0.00 | 0.00 | 83 | 1023.8 | |
| 20260502021219 | 44 | 0.0 | 0.0 | 0.00 | 0.00 | 0.00 | 83 | 1023.8 | |
| 20260502020917 | 44 | 0.0 | 0.0 | 0.00 | 0.00 | 0.00 | 83 | 1023.8 | |
| 20260502020617 | 44 | 0.0 | 0.0 | 0.00 | 0.00 | 0.00 | 83 | 1023.8 | |
| 20260502020317 | 44 | 0.0 | 0.0 | 0.00 | 0.00 | 0.00 | 83 | 1023.8 | |
| 20260502020100 | 45 | 0.0 | 0.0 | 0.00 | 0.00 | 0.00 | 83 | 1023.8 | |
| 20260502015715 | 45 | 0.0 | 0.0 | 0.00 | 0.00 | 0.00 | 83 | 1023.8 | |
| 20260502015417 | 44 | 0.0 | 0.0 | 0.00 | 0.00 | 0.00 | 82 | 1023.9 | |
| 20260502015116 | 44 | 0.0 | 0.0 | 0.00 | 0.00 | 0.00 | 82 | 1023.9 | |
| 20260502014817 | 44 | 0.0 | 0.0 | 0.00 | 0.00 | 0.00 | 82 | 1023.9 | |
| 20260502014517 | 45 | 0.0 | 0.0 | 0.00 | 0.00 | 0.00 | 82 | 1023.9 | |
| 20260502014217 | 45 | 0.0 | 0.0 | 0.00 | 0.00 | 0.00 | 82 | 1023.9 | |
| 20260502013916 | 45 | 0.0 | 0.0 | 0.00 | 0.00 | 0.00 | 82 | 1023.9 | |
| 20260502013618 | 45 | 0.0 | 0.0 | 0.00 | 0.00 | 0.00 | 82 | 1024.0 | |
| 20260502013317 | 45 | 0.0 | 0.0 | 0.00 | 0.00 | 0.00 | 82 | 1024.0 | |
| 20260502013016 | 45 | 0.0 | 0.0 | 0.00 | 0.00 | 0.00 | 82 | 1024.0 | |
| 20260502012755 | 45 | 0.0 | 0.0 | 0.00 | 0.00 | 0.00 | 82 | 1024.0 | |
| 20260502012416 | 45 | 0.0 | 0.0 | 0.00 | 0.00 | 0.00 | 82 | 1024.0 | |
| 20260502012115 | 45 | 0.0 | 0.0 | 0.00 | 0.00 | 0.00 | 82 | 1024.0 | |
| 20260502011900 | 45 | 0.0 | 0.0 | 0.00 | 0.00 | 0.00 | 82 | 1024.1 | |
| 20260502011555 | 45 | 0.0 | 0.0 | 0.00 | 0.00 | 0.00 | 82 | 1024.1 | |
| 20260502011217 | 45 | 0.0 | 0.0 | 0.00 | 0.00 | 0.00 | 81 | 1024.1 | |
| 20260502010916 | 45 | 0.0 | 0.0 | 0.00 | 0.00 | 0.00 | 81 | 1024.1 | |
| 20260502010657 | 45 | 3 | 0.0 | 1.0 | 0.00 | 0.00 | 0.00 | 81 | 1024.1 |
| 20260502010317 | 46 | 3 | 1.0 | 2.0 | 0.00 | 0.00 | 0.00 | 80 | 1024.1 |
| 20260502010015 | 46 | 3 | 0.0 | 1.0 | 0.00 | 0.00 | 0.00 | 80 | 1024.1 |
| 20260502005720 | 46 | 3 | 1.0 | 2.0 | 0.00 | 0.00 | 0.00 | 81 | 1024.1 |
| 20260502005415 | 46 | 3 | 0.0 | 2.0 | 0.00 | 0.00 | 0.00 | 81 | 1024.1 |
| 20260502005116 | 46 | 3 | 0.0 | 2.0 | 0.00 | 0.00 | 0.00 | 81 | 1024.2 |
| 20260502004819 | 45 | 3 | 0.0 | 1.0 | 0.00 | 0.00 | 0.00 | 81 | 1024.2 |
| 20260502004517 | 46 | 0.0 | 0.0 | 0.00 | 0.00 | 0.00 | 81 | 1024.2 | |
| 20260502004217 | 45 | 3 | 0.0 | 1.0 | 0.00 | 0.00 | 0.00 | 81 | 1024.2 |
| 20260502003915 | 45 | 0.0 | 0.0 | 0.00 | 0.00 | 0.00 | 81 | 1024.2 | |
| 20260502003617 | 45 | 0.0 | 0.0 | 0.00 | 0.00 | 0.00 | 81 | 1024.3 | |
| 20260502003316 | 45 | 0.0 | 0.0 | 0.00 | 0.00 | 0.00 | 81 | 1024.3 | |
| 20260502003017 | 45 | 0.0 | 0.0 | 0.00 | 0.00 | 0.00 | 82 | 1024.3 | |
| 20260502002716 | 45 | 0.0 | 0.0 | 0.00 | 0.00 | 0.00 | 82 | 1024.3 | |
| 20260502002420 | 45 | 0.0 | 0.0 | 0.00 | 0.00 | 0.00 | 82 | 1024.3 | |
| 20260502002157 | 45 | 0.0 | 0.0 | 0.00 | 0.00 | 0.00 | 82 | 1024.4 | |
| 20260502001815 | 45 | 0.0 | 0.0 | 0.00 | 0.00 | 0.00 | 82 | 1024.3 | |
| 20260502001557 | 45 | 0.0 | 0.0 | 0.00 | 0.00 | 0.00 | 81 | 1024.4 | |
| 20260502001215 | 45 | 0.0 | 0.0 | 0.00 | 0.00 | 0.00 | 81 | 1024.4 | |
| 20260502000916 | 46 | 0.0 | 0.0 | 0.00 | 0.00 | 0.00 | 81 | 1024.4 | |
| 20260502000616 | 46 | 0.0 | 0.0 | 0.00 | 0.00 | 0.00 | 81 | 1024.4 | |
| 20260502000317 | 46 | 0.0 | 0.0 | 0.00 | 0.00 | 0.00 | 80 | 1024.4 | |
| 20260502000020 | 46 | 0.0 | 0.0 | 0.00 | 0.00 | 0.00 | 80 | 1024.4 | |
| 20260501235715 | 46 | 0.0 | 0.0 | 0.00 | 0.00 | 0.00 | 80 | 1024.4 | |
| 20260501235416 | 46 | 0.0 | 0.0 | 0.00 | 0.00 | 0.00 | 80 | 1024.5 | |
| 20260501235115 | 46 | 0.0 | 0.0 | 0.00 | 0.00 | 0.00 | 80 | 1024.5 | |
| 20260501234820 | 46 | 0.0 | 0.0 | 0.00 | 0.00 | 0.00 | 80 | 1024.5 | |
| 20260501234515 | 46 | 0.0 | 0.0 | 0.00 | 0.00 | 0.00 | 80 | 1024.6 | |
| 20260501234256 | 46 | 0.0 | 0.0 | 0.00 | 0.00 | 0.00 | 80 | 1024.5 | |
| 20260501233917 | 46 | 0.0 | 0.0 | 0.00 | 0.00 | 0.00 | 80 | 1024.5 | |
| 20260501233615 | 47 | 0.0 | 0.0 | 0.00 | 0.00 | 0.00 | 80 | 1024.5 | |
| 20260501233317 | 47 | 0.0 | 0.0 | 0.00 | 0.00 | 0.00 | 79 | 1024.5 | |
| 20260501233056 | 47 | 0.0 | 0.0 | 0.00 | 0.00 | 0.00 | 80 | 1024.6 | |
| 20260501232717 | 47 | 0.0 | 0.0 | 0.00 | 0.00 | 0.00 | 80 | 1024.6 | |
| 20260501232415 | 47 | 0.0 | 0.0 | 0.00 | 0.00 | 0.00 | 80 | 1024.5 | |
| 20260501232117 | 47 | 0.0 | 0.0 | 0.00 | 0.00 | 0.00 | 80 | 1024.6 | |
| 20260501231815 | 47 | 0.0 | 0.0 | 0.00 | 0.00 | 0.00 | 79 | 1024.5 | |
| 20260501231517 | 47 | 0.0 | 0.0 | 0.00 | 0.00 | 0.00 | 79 | 1024.5 | |
| 20260501231216 | 48 | 0.0 | 0.0 | 0.00 | 0.00 | 0.00 | 79 | 1024.6 | |
| 20260501230915 | 48 | 0.0 | 0.0 | 0.00 | 0.00 | 0.00 | 79 | 1024.5 | |
| 20260501230657 | 48 | 3 | 0.0 | 1.0 | 0.00 | 0.00 | 0.00 | 78 | 1024.6 |
| 20260501230316 | 48 | 3 | 1.0 | 1.0 | 0.00 | 0.00 | 0.00 | 78 | 1024.6 |
| 20260501230017 | 48 | 3 | 1.0 | 1.0 | 0.00 | 0.00 | 0.00 | 78 | 1024.6 |
| 20260501225717 | 48 | 3 | 1.0 | 2.0 | 0.00 | 0.00 | 0.00 | 78 | 1024.6 |
| 20260501225415 | 48 | 3 | 0.0 | 1.0 | 0.00 | 0.00 | 0.00 | 78 | 1024.6 |
| 20260501225116 | 49 | 0.0 | 0.0 | 0.00 | 0.00 | 0.00 | 78 | 1024.6 | |
| 20260501224815 | 49 | 0.0 | 0.0 | 0.00 | 0.00 | 0.00 | 78 | 1024.6 | |
| 20260501224557 | 49 | 0.0 | 0.0 | 0.00 | 0.00 | 0.00 | 77 | 1024.6 | |
| 20260501224215 | 49 | 0.0 | 0.0 | 0.00 | 0.00 | 0.00 | 77 | 1024.6 | |
| 20260501223917 | 50 | 3 | 0.0 | 1.0 | 0.00 | 0.00 | 0.00 | 76 | 1024.5 |
| 20260501223617 | 50 | 3 | 0.0 | 1.0 | 0.00 | 0.00 | 0.00 | 75 | 1024.5 |
| 20260501223315 | 50 | 0.0 | 0.0 | 0.00 | 0.00 | 0.00 | 75 | 1024.5 | |
| 20260501223016 | 50 | 0.0 | 0.0 | 0.00 | 0.00 | 0.00 | 75 | 1024.6 | |
| 20260501222715 | 50 | 0.0 | 0.0 | 0.00 | 0.00 | 0.00 | 75 | 1024.5 | |
| 20260501222510 | 50 | 0.0 | 0.0 | 0.00 | 0.00 | 0.00 | 74 | 1024.6 | |
| 20260501222116 | 51 | 0.0 | 0.0 | 0.00 | 0.00 | 0.00 | 74 | 1024.6 | |
| 20260501221816 | 51 | 0.0 | 0.0 | 0.00 | 0.00 | 0.00 | 74 | 1024.6 | |
| 20260501221600 | 51 | 0.0 | 0.0 | 0.00 | 0.00 | 0.00 | 74 | 1024.6 | |
| 20260501221217 | 51 | 0.0 | 0.0 | 0.00 | 0.00 | 0.00 | 73 | 1024.6 | |
| 20260501220916 | 51 | 0.0 | 0.0 | 0.00 | 0.00 | 0.00 | 73 | 1024.6 | |
| 20260501220818 | 51 | 0.0 | 0.0 | 0.00 | 0.00 | 0.00 | 73 | 1024.6 | |
| 20260501220317 | 51 | 0.0 | 0.0 | 0.00 | 0.00 | 0.00 | 73 | 1024.7 | |
| 20260501220016 | 52 | 0.0 | 0.0 | 0.00 | 0.00 | 0.00 | 73 | 1024.6 | |
| 20260501215716 | 52 | 3 | 0.0 | 1.0 | 0.00 | 0.00 | 0.00 | 73 | 1024.6 |
| 20260501215417 | 52 | 3 | 1.0 | 2.0 | 0.00 | 0.00 | 0.00 | 72 | 1024.6 |
| 20260501215117 | 52 | 3 | 1.0 | 2.0 | 0.00 | 0.00 | 0.00 | 72 | 1024.6 |
| 20260501214819 | 52 | 3 | 1.0 | 2.0 | 0.00 | 0.00 | 0.00 | 72 | 1024.6 |
| 20260501214515 | 52 | 3 | 2.0 | 2.0 | 0.00 | 0.00 | 0.00 | 73 | 1024.6 |
| 20260501214217 | 52 | 3 | 2.0 | 3.0 | 0.00 | 0.00 | 0.00 | 73 | 1024.6 |
| 20260501213915 | 52 | 3 | 2.0 | 3.0 | 0.00 | 0.00 | 0.00 | 73 | 1024.6 |
| 20260501213617 | 52 | 3 | 1.0 | 2.0 | 0.00 | 0.00 | 0.00 | 72 | 1024.6 |
| 20260501213355 | 52 | 3 | 2.0 | 2.0 | 0.00 | 0.00 | 0.00 | 72 | 1024.6 |
| 20260501213017 | 53 | 3 | 1.0 | 2.0 | 0.00 | 0.00 | 0.00 | 71 | 1024.7 |
| 20260501212757 | 53 | 3 | 1.0 | 2.0 | 0.00 | 0.00 | 0.00 | 71 | 1024.7 |
| 20260501212415 | 52 | 3 | 1.0 | 2.0 | 0.00 | 0.00 | 0.00 | 71 | 1024.7 |
| 20260501212115 | 52 | 3 | 1.0 | 2.0 | 0.00 | 0.00 | 0.00 | 72 | 1024.7 |
| 20260501211815 | 52 | 3 | 1.0 | 3.0 | 0.00 | 0.00 | 0.00 | 73 | 1024.7 |
| 20260501211517 | 52 | 3 | 1.0 | 2.0 | 0.00 | 0.00 | 0.00 | 73 | 1024.7 |
| 20260501211217 | 52 | 3 | 2.0 | 3.0 | 0.00 | 0.00 | 0.00 | 73 | 1024.7 |
| 20260501210955 | 52 | 3 | 1.0 | 2.0 | 0.00 | 0.00 | 0.00 | 73 | 1024.7 |
| 20260501210616 | 52 | 3 | 1.0 | 2.0 | 0.00 | 0.00 | 0.00 | 73 | 1024.7 |
| 20260501210318 | 53 | 3 | 1.0 | 2.0 | 0.00 | 0.00 | 0.00 | 73 | 1024.7 |
| 20260501210016 | 53 | 3 | 1.0 | 2.0 | 0.00 | 0.00 | 0.00 | 73 | 1024.7 |
| 20260501205755 | 52 | 3 | 2.0 | 2.0 | 0.00 | 0.00 | 0.00 | 73 | 1024.7 |
| 20260501205417 | 52 | 3 | 1.0 | 2.0 | 0.00 | 0.00 | 0.00 | 73 | 1024.7 |
| 20260501205119 | 52 | 3 | 1.0 | 2.0 | 0.00 | 0.00 | 0.00 | 73 | 1024.7 |
| 20260501204817 | 52 | 3 | 1.0 | 2.0 | 0.00 | 0.00 | 0.00 | 74 | 1024.8 |
| 20260501204516 | 52 | 3 | 1.0 | 2.0 | 0.00 | 0.00 | 0.00 | 73 | 1024.8 |
| 20260501204255 | 52 | 3 | 1.0 | 2.0 | 0.00 | 0.00 | 0.00 | 73 | 1024.8 |
| 20260501203916 | 52 | 3 | 1.0 | 2.0 | 0.00 | 0.00 | 0.00 | 73 | 1024.8 |
| 20260501203616 | 53 | 3 | 1.0 | 3.0 | 0.00 | 0.00 | 0.00 | 73 | 1024.8 |
| 20260501203437 | 53 | 3 | 1.0 | 3.0 | 0.00 | 0.00 | 0.00 | 72 | 1024.8 |
| 20260501203017 | 53 | 3 | 0.0 | 2.0 | 0.00 | 0.00 | 0.00 | 72 | 1024.8 |
| 20260501202717 | 54 | 3 | 1.0 | 2.0 | 0.00 | 0.00 | 0.00 | 71 | 1024.8 |
| 20260501202416 | 54 | 3 | 1.0 | 2.0 | 0.00 | 0.00 | 0.00 | 71 | 1024.8 |
| 20260501202155 | 54 | 3 | 2.0 | 3.0 | 0.00 | 0.00 | 0.00 | 70 | 1024.9 |
| 20260501201820 | 54 | 3 | 2.0 | 3.0 | 0.00 | 0.00 | 0.00 | 68 | 1024.9 |
| 20260501201515 | 55 | 3 | 2.0 | 3.0 | 0.00 | 0.00 | 0.00 | 68 | 1024.9 |
| 20260501201217 | 55 | 3 | 2.0 | 3.0 | 0.00 | 0.00 | 0.00 | 68 | 1024.9 |
| 20260501200957 | 55 | 3 | 2.0 | 3.0 | 0.00 | 0.00 | 0.00 | 68 | 1025.0 |
| 20260501200625 | 55 | 3 | 2.0 | 2.0 | 0.00 | 0.00 | 0.00 | 68 | 1025.0 |
| 20260501200316 | 55 | 3 | 2.0 | 3.0 | 0.00 | 0.00 | 0.00 | 68 | 1025.0 |
| 20260501200015 | 55 | 3 | 1.0 | 3.0 | 0.00 | 0.00 | 0.00 | 68 | 1025.0 |
| 20260501195719 | 55 | 0.0 | 0.0 | 0.00 | 0.00 | 0.00 | 69 | 1025.0 | |
| 20260501195415 | 55 | 3 | 1.0 | 3.0 | 0.00 | 0.00 | 0.00 | 69 | 1025.0 |
| 20260501195157 | 55 | 3 | 2.0 | 3.0 | 0.00 | 0.00 | 0.00 | 69 | 1025.0 |
| 20260501194816 | 55 | 3 | 2.0 | 2.0 | 0.00 | 0.00 | 0.00 | 68 | 1025.0 |
| 20260501194557 | 55 | 3 | 1.0 | 3.0 | 0.00 | 0.00 | 0.00 | 68 | 1025.0 |
| 20260501194216 | 56 | 3 | 2.0 | 3.0 | 0.00 | 0.00 | 0.00 | 68 | 1025.0 |
| 20260501193616 | 56 | 3 | 2.0 | 2.0 | 0.00 | 0.00 | 0.00 | 66 | 1025.0 |
| 20260501193356 | 56 | 3 | 2.0 | 2.0 | 0.00 | 0.00 | 0.00 | 67 | 1025.1 |
| 20260501193020 | 56 | 3 | 1.0 | 2.0 | 0.00 | 0.00 | 0.00 | 68 | 1025.1 |
| 20260501192720 | 56 | 3 | 1.0 | 2.0 | 0.00 | 0.00 | 0.00 | 69 | 1025.1 |
| 20260501192415 | 56 | 3 | 1.0 | 2.0 | 0.00 | 0.00 | 0.00 | 68 | 1025.0 |
| 20260501192116 | 56 | 3 | 2.0 | 2.0 | 0.00 | 0.00 | 0.00 | 67 | 1025.0 |
| 20260501191815 | 57 | 3 | 2.0 | 3.0 | 0.00 | 0.00 | 0.00 | 66 | 1025.0 |
| 20260501191516 | 57 | 3 | 2.0 | 2.0 | 0.00 | 0.00 | 0.00 | 66 | 1025.1 |
| 20260501191215 | 57 | 3 | 2.0 | 3.0 | 0.00 | 0.00 | 0.00 | 66 | 1025.1 |
| 20260501190917 | 57 | 3 | 2.0 | 2.0 | 0.00 | 0.00 | 0.00 | 66 | 1025.1 |
| 20260501190620 | 58 | 3 | 1.0 | 2.0 | 0.00 | 0.00 | 0.00 | 66 | 1025.1 |
| 20260501190317 | 58 | 3 | 1.0 | 2.0 | 0.00 | 0.00 | 0.00 | 66 | 1025.0 |
| 20260501190015 | 58 | 3 | 1.0 | 2.0 | 0.00 | 0.00 | 0.00 | 65 | 1025.0 |
| 20260501185715 | 58 | 3 | 1.0 | 2.0 | 0.00 | 0.00 | 0.00 | 65 | 1025.0 |
| 20260501185416 | 59 | 3 | 2.0 | 3.0 | 0.00 | 0.00 | 0.00 | 63 | 1025.0 |
| 20260501185115 | 59 | 3 | 2.0 | 3.0 | 0.00 | 0.00 | 0.00 | 63 | 1025.0 |
| 20260501184817 | 59 | 3 | 2.0 | 3.0 | 0.00 | 0.00 | 0.00 | 63 | 1025.0 |
| 20260501184517 | 59 | 3 | 2.0 | 3.0 | 0.00 | 0.00 | 0.00 | 63 | 1025.0 |
| 20260501184217 | 60 | 3 | 2.0 | 2.0 | 0.00 | 0.00 | 0.00 | 63 | 1024.9 |
| 20260501183956 | 60 | 3 | 2.0 | 2.0 | 0.00 | 0.00 | 0.00 | 62 | 1024.9 |
| 20260501183655 | 60 | 3 | 2.0 | 2.0 | 0.00 | 0.00 | 0.00 | 62 | 1024.9 |
| 20260501183357 | 61 | 3 | 2.0 | 3.0 | 0.00 | 0.00 | 0.00 | 61 | 1024.9 |
| 20260501183015 | 61 | 3 | 2.0 | 2.0 | 0.00 | 0.00 | 0.00 | 61 | 1024.9 |
| 20260501182717 | 61 | 5 | 2.0 | 2.0 | 0.00 | 0.00 | 0.00 | 60 | 1024.9 |
| 20260501182417 | 62 | 5 | 2.0 | 3.0 | 0.00 | 0.00 | 0.00 | 59 | 1024.8 |
| 20260501182117 | 62 | 5 | 2.0 | 3.0 | 0.00 | 0.00 | 0.00 | 59 | 1024.8 |
| 20260501181816 | 62 | 5 | 2.0 | 3.0 | 0.00 | 0.00 | 0.00 | 59 | 1024.8 |
| 20260501181515 | 63 | 5 | 2.0 | 3.0 | 0.00 | 0.00 | 0.00 | 58 | 1024.8 |
| 20260501181219 | 63 | 5 | 2.0 | 3.0 | 0.00 | 0.00 | 0.00 | 57 | 1024.7 |
| 20260501180955 | 64 | 5 | 2.0 | 3.0 | 0.00 | 0.00 | 0.00 | 58 | 1024.7 |
| 20260501180617 | 64 | 5 | 2.0 | 3.0 | 0.00 | 0.00 | 0.00 | 57 | 1024.7 |
| 20260501180317 | 65 | 5 | 2.0 | 3.0 | 0.00 | 0.00 | 0.00 | 56 | 1024.7 |
| 20260501180017 | 65 | 5 | 2.0 | 2.0 | 0.00 | 0.00 | 0.00 | 55 | 1024.6 |
| 20260501175716 | 65 | 5 | 2.0 | 3.0 | 0.00 | 0.00 | 0.00 | 54 | 1024.7 |
| 20260501175417 | 66 | 5 | 1.0 | 3.0 | 0.00 | 0.00 | 0.00 | 53 | 1024.7 |
| 20260501175116 | 67 | 5 | 1.0 | 2.0 | 0.00 | 0.00 | 0.00 | 52 | 1024.7 |
| 20260501174815 | 67 | 5 | 1.0 | 2.0 | 0.00 | 0.00 | 0.00 | 51 | 1024.7 |
| 20260501174517 | 68 | 5 | 1.0 | 2.0 | 0.00 | 0.00 | 0.00 | 49 | 1024.7 |
| 20260501174217 | 68 | 5 | 1.0 | 2.0 | 0.00 | 0.00 | 0.00 | 50 | 1024.7 |
| 20260501173916 | 68 | 5 | 1.0 | 3.0 | 0.00 | 0.00 | 0.00 | 50 | 1024.7 |
| 20260501173617 | 68 | 357 | 1.0 | 3.0 | 0.00 | 0.00 | 0.00 | 48 | 1024.7 |
| 20260501173317 | 69 | 347 | 1.0 | 4.0 | 0.00 | 0.00 | 0.00 | 47 | 1024.7 |
| 20260501173139 | 69 | 329 | 2.0 | 4.0 | 0.00 | 0.00 | 0.00 | 47 | 1024.7 |
| 20260501172715 | 69 | 327 | 3.0 | 5.0 | 0.00 | 0.00 | 0.00 | 47 | 1024.7 |
| 20260501172416 | 70 | 328 | 2.0 | 4.0 | 0.00 | 0.00 | 0.00 | 46 | 1024.8 |
| 20260501172119 | 70 | 328 | 2.0 | 3.0 | 0.00 | 0.00 | 0.00 | 47 | 1024.8 |
| 20260501171817 | 70 | 326 | 2.0 | 4.0 | 0.00 | 0.00 | 0.00 | 47 | 1024.8 |
| 20260501171516 | 70 | 329 | 2.0 | 5.0 | 0.00 | 0.00 | 0.00 | 45 | 1024.8 |
| 20260501171216 | 71 | 326 | 2.0 | 4.0 | 0.00 | 0.00 | 0.00 | 45 | 1024.8 |
| 20260501170916 | 71 | 324 | 4.0 | 5.0 | 0.00 | 0.00 | 0.00 | 46 | 1024.8 |
| 20260501170615 | 71 | 330 | 3.0 | 5.0 | 0.00 | 0.00 | 0.00 | 45 | 1024.8 |
| 20260501170315 | 71 | 332 | 2.0 | 4.0 | 0.00 | 0.00 | 0.00 | 46 | 1024.8 |
| 20260501170016 | 71 | 324 | 3.0 | 5.0 | 0.00 | 0.00 | 0.00 | 45 | 1024.8 |
| 20260501165719 | 71 | 327 | 2.0 | 4.0 | 0.00 | 0.00 | 0.00 | 45 | 1024.9 |
| 20260501165416 | 71 | 326 | 3.0 | 5.0 | 0.00 | 0.00 | 0.00 | 44 | 1024.8 |
| 20260501165115 | 72 | 353 | 3.0 | 8.0 | 0.00 | 0.00 | 0.00 | 43 | 1024.8 |
| 20260501164816 | 72 | 337 | 3.0 | 7.0 | 0.00 | 0.00 | 0.00 | 42 | 1024.8 |